TimeEDT,TemperatureF,Dew PointF,Humidity,Sea Level PressureIn,VisibilityMPH,Wind Direction,Wind SpeedMPH,Gust SpeedMPH,PrecipitationIn,Events,Conditions,WindDirDegrees,DateUTC
12:53 AM,61.0,57.9,90,29.90,10.0,Calm,Calm,-,N/A,,Overcast,0,2013-04-11 04:53:00
1:53 AM,60.1,57.9,93,29.81,8.0,South,4.6,-,N/A,,Clear,170,2013-04-11 05:53:00
2:53 AM,59.0,57.0,93,29.81,9.0,West,3.5,-,N/A,,Clear,280,2013-04-11 06:53:00
3:53 AM,57.9,55.9,93,29.83,7.0,Calm,Calm,-,N/A,,Clear,0,2013-04-11 07:53:00
4:53 AM,57.9,55.9,93,29.85,7.0,Variable,3.5,-,N/A,,Clear,0,2013-04-11 08:53:00
5:53 AM,60.1,55.9,86,29.87,8.0,Calm,Calm,-,N/A,,Partly Cloudy,0,2013-04-11 09:53:00
6:36 AM,55.4,53.6,94,29.87,1.8,Calm,Calm,-,N/A,,Clear,0,2013-04-11 10:36:00
6:46 AM,53.6,53.6,100,29.88,0.5,Calm,Calm,-,N/A,Fog,Fog,0,2013-04-11 10:46:00
6:53 AM,55.0,54.0,96,29.87,0.5,Calm,Calm,-,N/A,Fog,Fog,0,2013-04-11 10:53:00
7:08 AM,55.4,53.6,94,29.88,3.0,Calm,Calm,-,N/A,,Clear,0,2013-04-11 11:08:00
7:53 AM,57.0,55.9,96,29.87,3.0,Calm,Calm,-,N/A,,Clear,0,2013-04-11 11:53:00
8:53 AM,63.0,57.9,84,29.87,6.0,East,3.5,-,N/A,,Haze,100,2013-04-11 12:53:00
9:53 AM,66.0,59.0,78,29.88,8.0,Calm,Calm,-,N/A,,Clear,0,2013-04-11 13:53:00
10:53 AM,70.0,60.1,71,29.89,8.0,ENE,8.1,-,N/A,,Partly Cloudy,60,2013-04-11 14:53:00
11:53 AM,70.0,60.1,71,29.89,9.0,NE,8.1,-,N/A,,Scattered Clouds,50,2013-04-11 15:53:00
1:53 PM,73.0,61.0,66,29.84,7.0,ENE,10.4,-,N/A,,Clear,60,2013-04-11 17:53:00
2:53 PM,73.0,61.0,66,29.82,8.0,ENE,16.1,-,N/A,,Clear,70,2013-04-11 18:53:00
3:53 PM,71.1,59.0,66,29.82,8.0,East,17.3,-,N/A,,Clear,80,2013-04-11 19:53:00
4:53 PM,64.9,55.9,73,29.83,6.0,ENE,16.1,-,N/A,,Haze,70,2013-04-11 20:53:00
5:53 PM,64.0,53.1,67,29.83,7.0,East,17.3,-,N/A,,Clear,90,2013-04-11 21:53:00
6:37 PM,62.6,53.6,72,29.85,7.0,East,15.0,-,N/A,,Mostly Cloudy,80,2013-04-11 22:37:00
6:53 PM,62.1,53.1,72,29.85,5.0,ESE,18.4,24.2,N/A,,Haze,120,2013-04-11 22:53:00
7:53 PM,57.9,50.0,75,29.86,9.0,East,21.9,25.3,N/A,,Overcast,100,2013-04-11 23:53:00
8:53 PM,55.9,48.0,75,29.88,10.0,East,12.7,-,N/A,,Overcast,100,2013-04-12 00:53:00
9:53 PM,54.0,46.0,75,29.89,10.0,East,16.1,-,N/A,,Overcast,100,2013-04-12 01:53:00
10:53 PM,52.0,45.0,77,29.89,10.0,East,18.4,-,N/A,,Overcast,100,2013-04-12 02:53:00
11:53 PM,51.1,44.1,77,29.88,10.0,East,17.3,-,N/A,,Overcast,90,2013-04-12 03:53:00